{"data":{"norad_id":68969,"intl_designator":"2026-099U","name":"STARLINK-36303","alt_names":[],"object_type":"PAYLOAD","status":"ACTIVE","operator":null,"country":"US","launch_date":"2026-05-01","launch_site_code":"AFETR","launch_vehicle":null,"mission":null,"orbit_class":"UNKNOWN","rcs_meters":null,"size_class":null,"mass_kg":null,"dimensions":null,"purposes":["comms"],"wikipedia_slug":null,"has_3d_model":false,"image_url":null,"decayed_at":null,"tle_current":{"epoch":"2026-05-24T20:15:14.297472Z","epoch_age_seconds":99249,"freshness":"FRESH","line1":"1 68969U 26099U   26144.84391548 -.00481425  00000+0 -36271-2 0  9999","line2":"2 68969  53.1584 271.4749 0001427  46.2943 313.8195 15.73190179  3671","mean_motion":15.73190179,"eccentricity":0.0001427,"inclination_deg":53.1584,"raan_deg":271.4749,"arg_perigee_deg":46.2943,"mean_anomaly_deg":313.8195,"bstar":-0.0036271,"rev_number":367,"period_min":91.533752194877,"perigee_km":348.82609927826,"apogee_km":350.74624855209,"semimajor_km":6727.9231739152,"source":"CELESTRAK","updated_at":"2026-05-25T13:38:22.076135Z"}}}